EW2910 Weather Reports


Display with metric or nautical units.
time (UTC)temp
F
wind
direction
speed
MPH
gust
MPH
rain 1hr
in
rain 24hr
in
rain mn
in
humidity
%
barometer
mb
20260508233119 90 0 0.0 3.0 0.00 0.00 0.00 58 1011.7
20260508231603 91 236 0.0 2.0 0.00 0.00 0.00 53 1011.4
20260508230058 92 0 0.0 3.0 0.00 0.00 0.00 52 1011.2
20260508224558 92 0 0.0 4.0 0.00 0.00 0.00 52 1011.2
20260508223100 93 0 0.0 5.0 0.00 0.00 0.00 50 1011.1
20260508221600 95 0 1.0 6.0 0.00 0.00 0.00 48 1011.0
20260508214557 95 332 1.0 6.0 0.00 0.00 0.00 49 1011.0
20260508213100 95 207 0.0 2.0 0.00 0.00 0.00 50 1011.0
20260508211600 94 218 1.0 7.0 0.00 0.00 0.00 52 1011.1
20260508210101 94 0 0.0 5.0 0.00 0.00 0.00 51 1011.1
20260508204600 95 181 0.0 6.0 0.00 0.00 0.00 51 1011.3
20260508203058 95 228 2.0 6.0 0.00 0.00 0.00 50 1011.4
20260508201559 95 102 1.0 8.0 0.00 0.00 0.00 52 1011.8
20260508200100 94 111 1.0 5.0 0.00 0.00 0.00 53 1011.9
20260508194609 93 318 0.0 7.0 0.00 0.00 0.00 53 1012.1
20260508193121 93 0 0.0 6.0 0.00 0.00 0.00 53 1012.3
20260508191608 94 345 1.0 10.0 0.00 0.00 0.00 52 1012.5
20260508190114 95 217 1.0 8.0 0.00 0.00 0.00 51 1012.8
20260508184613 92 0 0.0 7.0 0.00 0.00 0.00 56 1012.9
20260508183101 92 0 0.0 4.0 0.00 0.00 0.00 57 1013.4
20260508181604 91 311 1.0 5.0 0.00 0.00 0.00 59 1013.4
20260508174557 91 0 0.0 10.0 0.00 0.00 0.00 58 1013.9
20260508173059 91 41 2.0 6.0 0.00 0.00 0.00 58 1014.1
20260508171559 92 297 2.0 6.0 0.00 0.00 0.00 58 1014.3
20260508170104 90 0 1.0 7.0 0.00 0.00 0.00 59 1014.4
20260508164559 89 358 0.0 7.0 0.00 0.00 0.00 62 1014.8
20260508163106 89 340 3.0 7.0 0.00 0.00 0.00 61 1015.1
20260508161601 87 323 5.0 10.0 0.00 0.00 0.00 67 1015.4
20260508160058 88 0 2.0 8.0 0.00 0.00 0.00 65 1015.6
20260508154557 88 213 1.0 6.0 0.00 0.00 0.00 67 1015.7
20260508153107 86 0 2.0 10.0 0.00 0.00 0.00 70 1015.8
20260508151559 85 306 4.0 8.0 0.00 0.00 0.00 73 1016.0
20260508144559 84 341 3.0 8.0 0.00 0.00 0.00 75 1016.1
20260508143118 84 338 1.0 11.0 0.00 0.00 0.00 77 1015.9
20260508141605 83 0 1.0 10.0 0.00 0.00 0.00 79 1015.9
20260508140118 83 238 2.0 6.0 0.00 0.00 0.00 82 1016.0
20260508134558 82 341 2.0 8.0 0.00 0.00 0.00 83 1016.0
20260508133105 80 340 5.0 10.0 0.00 0.00 0.00 87 1015.9
20260508131603 79 284 1.0 8.0 0.00 0.00 0.00 89 1016.0
20260508130100 78 277 2.0 5.0 0.00 0.00 0.00 90 1016.0
20260508124604 77 0 0.0 5.0 0.00 0.00 0.00 93 1016.0
20260508123057 75 284 1.0 4.0 0.00 0.00 0.00 94 1015.7
20260508121557 74 273 0.0 4.0 0.00 0.00 0.00 95 1015.7
20260508120113 73 293 1.0 4.0 0.00 0.00 0.00 96 1015.4
20260508114604 72 0 0.0 1.0 0.00 0.00 0.00 96 1015.2
20260508113107 71 0 0.0 2.0 0.00 0.00 0.00 96 1014.9
20260508111601 70 290 0.0 2.0 0.00 0.00 0.00 96 1014.9
20260508110105 69 0 0.0 1.0 0.00 0.00 0.00 96 1014.7
20260508104600 69 212 0.0 0.0 0.00 0.00 0.00 96 1014.3
20260508103100 69 0 0.0 1.0 0.00 0.00 0.00 96 1014.2
20260508101603 70 0 0.0 1.0 0.00 0.00 0.00 96 1014.1
20260508100129 70 0 0.0 0.0 0.00 0.00 0.00 96 1013.8
20260508094558 70 0 0.0 1.0 0.00 0.00 0.00 95 1013.6
20260508093100 70 0 0.0 0.0 0.00 0.00 0.00 95 1013.7
20260508091611 70 0 0.0 1.0 0.00 0.00 0.00 95 1013.7
20260508090100 70 0 0.0 1.0 0.00 0.00 0.00 95 1013.4
20260508084600 71 268 0.0 2.0 0.00 0.00 0.00 95 1013.4
20260508083101 71 0 0.0 3.0 0.00 0.00 0.00 95 1013.4
20260508081614 71 257 2.0 5.0 0.00 0.00 0.00 95 1013.3
20260508074608 71 279 1.0 4.0 0.00 0.00 0.00 94 1013.5
20260508073102 71 0 2.0 5.0 0.00 0.00 0.00 94 1013.6
20260508071600 71 263 2.0 5.0 0.00 0.00 0.00 94 1013.7
20260508070059 71 268 2.0 7.0 0.00 0.00 0.00 93 1013.7
20260508064602 72 274 2.0 6.0 0.00 0.00 0.00 93 1013.7
20260508063101 72 248 2.0 6.0 0.00 0.00 0.00 92 1013.7
20260508061606 72 274 1.0 7.0 0.00 0.00 0.00 92 1013.9
20260508060125 72 308 3.0 5.0 0.00 0.00 0.00 91 1014.1
20260508054640 73 293 2.0 7.0 0.00 0.00 0.00 91 1014.2
20260508053100 73 291 3.0 8.0 0.00 0.00 0.00 90 1014.3
20260508051558 73 259 0.0 6.0 0.00 0.00 0.00 89 1014.3
20260508050100 73 277 3.0 6.0 0.00 0.00 0.00 89 1014.5
20260508044557 73 252 2.0 7.0 0.00 0.00 0.00 88 1014.4
20260508043102 73 293 3.0 8.0 0.00 0.00 0.00 87 1014.4
20260508041557 74 261 3.0 6.0 0.00 0.00 0.00 86 1014.4
20260508040100 74 268 2.0 7.0 0.00 0.00 0.00 85 1014.5
20260508034558 74 241 2.0 10.0 0.00 0.00 0.00 84 1014.3
20260508033058 74 269 3.0 7.0 0.00 0.00 0.00 82 1014.3
20260508031602 75 272 3.0 7.0 0.00 0.00 0.00 81 1014.3
20260508030109 75 295 2.0 7.0 0.00 0.00 0.00 80 1014.2
20260508024617 76 273 1.0 8.0 0.00 0.00 0.00 77 1014.3
20260508023058 76 302 3.0 7.0 0.00 0.00 0.00 74 1014.3
20260508021600 77 275 3.0 6.0 0.00 0.00 0.00 72 1014.3
20260508020106 78 281 3.0 8.0 0.00 0.00 0.00 69 1014.1
20260508014615 78 264 2.0 6.0 0.00 0.00 0.00 66 1013.9
20260508013101 79 0 3.0 5.0 0.00 0.00 0.00 62 1013.9
20260508011615 79 286 1.0 6.0 0.00 0.00 0.00 58 1013.6
20260508004558 81 0 0.0 5.0 0.00 0.00 0.00 51 1013.6
20260508003058 82 0 0.0 4.0 0.00 0.00 0.00 48 1013.5
20260508001603 83 287 1.0 5.0 0.00 0.00 0.00 45 1013.4
20260508000057 84 0 1.0 6.0 0.00 0.00 0.00 42 1013.2
20260507234606 85 308 4.0 7.0 0.00 0.00 0.00 40 1013.2